sat.trackr.live / text

‹ back to catalog

HYLAS 2

NORAD 38741 · 2012-043B

PAYLOAD ACTIVE UNKNOWN

§ Identity

Operator
Country
UK
Launch date
2012-08-02
Launch site
FRGUI
Launch vehicle
Mass (kg)
RCS (m²)
5.01

Purposes: comms

External: N2YO · Heavens-Above · Gunter

§ Orbital elements

Epoch: 2026-09-20T03:09:28.554336Z

Period
1,432.52 min
Inclination
2.6639°
Eccentricity
0.0003701
Mean motion
1.00522478 rev/d
Perigee alt
35,700.9 km
Apogee alt
35,732.0 km
Semi-major
42,094.6 km
B*
0.0000e+0
RAAN
79.8034°
Arg perigee
157.6258°
Mean anomaly
152.7408°
Rev number
5,172

§ Raw data

HYLAS 21 38741U 12043B   26263.13158049 -.00000087  00000+0  00000+0 0  99972 38741   2.6639  79.8034 0003701 157.6258 152.7408  1.00522478 51728

JSON: /api/v1/satellites/38741 · /tle

For live sub-satellite position, see the globe view (requires WebGL).

§ Visibility from observer

Set your observer location to see the next 7 days of passes ≥ 10°. The values pass through the URL so the page stays shareable.

No JS? Fill the form by hand. The geolocation button needs JavaScript.